Location: Casco Millpond
(44.5581°N, 87.6111°W)
Time: 21:53:14
(UTC+00:00)

Cosmos 1953 - Pass Details

Date: 16 January 2026
Orbit: 474 x 489 km, 82.5° (Epoch: 10 February)

Event Time Altitude Azimuth Distance (km) Brightness Sun altitude
Rises 12:02:34 0° 168° (SSE) 2,530 6.1 -14.1°
Reaches altitude 10° 12:04:45 10° 159° (SSE) 1,659 5.3 -13.7°
Maximum altitude 12:08:05 35° 92° (E) 800 3.9 -13.1°
Drops below altitude 10° 12:11:27 10° 26° (NNE) 1,683 4.9 -12.6°
Sets 12:13:41 0° 17° (NNE) 2,573 5.8 -12.2°
